This is the latest recevied weather packets stored in our database for station/object SV9TNF-51. If no packets are shown the sender has not sent any weather packets the latest 10 day(s).
| Time | Temp. | Humidity | Pressure | Rain* | Wind** | Luminosity | Snow |
|---|---|---|---|---|---|---|---|
| 1788298707 | 25.56° C | 61% | 1011.5 hPa | 0 mm | 2.68 m/s, 99° | - | - |
| 1788298407 | 24.44° C | 63% | 1011.5 hPa | 0 mm | 1.34 m/s, 135° | - | - |
| 1788298107 | 25° C | 70% | 1011.5 hPa | 0 mm | 1.34 m/s, 120° | - | - |
| 1788297807 | 25° C | 70% | 1011.5 hPa | 0 mm | 1.79 m/s, 100° | - | - |
| 1788297507 | 24.44° C | 70% | 1011.5 hPa | 0 mm | 4.92 m/s, 10° | - | - |
| 1788297207 | 24.44° C | 69% | 1011.5 hPa | 0 mm | 2.24 m/s, 147° | - | - |
| 1788296607 | 25° C | 69% | 1011.5 hPa | 0 mm | 1.79 m/s, 120° | - | - |
| 1788296307 | 25.56° C | 68% | 1011.5 hPa | 0 mm | 2.68 m/s, 123° | - | - |
| 1788296006 | 25.56° C | 66% | 1011.5 hPa | 0 mm | 0 m/s | - | - |
| 1788295707 | 25.56° C | 66% | 1011.5 hPa | 0 mm | 0 m/s | - | - |
| 1788295406 | 25° C | 65% | 1011.5 hPa | 0 mm | 3.58 m/s, 92° | - | - |
| 1788295106 | 25.56° C | 65% | 1011.5 hPa | 0 mm | 0.89 m/s, 124° | - | - |
| 1788294806 | 25.56° C | 65% | 1011.5 hPa | 0 mm | 3.58 m/s, 335° | - | - |
| 1788294506 | 25.56° C | 62% | 1011.5 hPa | 0 mm | 4.92 m/s, 342° | - | - |
| 1788294206 | 25.56° C | 65% | 1011.9 hPa | 0 mm | 4.02 m/s, 0° | - | - |
| 1788293906 | 25.56° C | 64% | 1011.9 hPa | 0 mm | 1.34 m/s, 143° | - | - |
| 1788293605 | 25.56° C | 65% | 1011.9 hPa | 0 mm | 0 m/s | - | - |
| 1788293306 | 25.56° C | 66% | 1011.9 hPa | 0 mm | 0 m/s | - | - |
| 1788293005 | 25.56° C | 66% | 1011.9 hPa | 0 mm | 1.79 m/s, 90° | - | - |
| 1788292705 | 25.56° C | 66% | 1012.2 hPa | 0 mm | 1.34 m/s, 105° | - | - |
| 1788292405 | 25.56° C | 66% | 1012.2 hPa | 0 mm | 2.68 m/s, 72° | - | - |
| 1788292105 | 25.56° C | 66% | 1012.2 hPa | 0 mm | 0 m/s | - | - |
| 1788291805 | 25.56° C | 67% | 1012.2 hPa | 0 mm | 0 m/s | - | - |
| 1788291505 | 25.56° C | 67% | 1012.2 hPa | 0 mm | 0.45 m/s, 141° | - | - |
| 1788291205 | 25.56° C | 67% | 1012.2 hPa | 0 mm | 0.45 m/s, 118° | - | - |
* Rain latest hour (hover to see other rain measurements)
** Current wind speed in m/s (hover to see current wind gust speed)